W0NKY-13 Weather Reports


Display with metric or nautical units.
time (UTC)temp
F
wind
direction
speed
MPH
gust
MPH
rain 1hr
in
rain 24hr
in
rain mn
in
humidity
%
barometer
mb
20260503200518 63 51 2.0 8.0 0.00 0.00 0.00 41 1017.8
20260503195519 63 21 2.0 8.0 0.00 0.00 0.00 40 1017.9
20260503194518 63 4 3.0 9.0 0.00 0.00 0.00 38 1018.1
20260503193538 62 11 2.0 6.0 0.00 0.00 0.00 39 1018.3
20260503192539 63 24 3.0 7.0 0.00 0.00 0.00 39 1018.6
20260503191539 64 63 2.0 7.0 0.00 0.00 0.00 39 1018.8
20260503190517 63 40 2.0 8.0 0.00 0.00 0.00 40 1019.0
20260503185516 64 12 3.0 7.0 0.00 0.00 0.00 40 1019.2
20260503184539 63 40 2.0 6.0 0.00 0.00 0.00 41 1019.2
20260503183539 64 39 3.0 6.0 0.00 0.00 0.00 38 1019.5
20260503182516 65 5 2.0 5.0 0.00 0.00 0.00 38 1019.6
20260503181516 65 23 2.0 5.0 0.00 0.00 0.00 37 1019.6
20260503180537 64 10 2.0 6.0 0.00 0.00 0.00 38 1019.7
20260503175520 63 10 2.0 6.0 0.00 0.00 0.00 40 1019.8
20260503174520 63 31 3.0 9.0 0.00 0.00 0.00 38 1019.8
20260503173517 64 3 2.0 7.0 0.00 0.00 0.00 38 1020.1
20260503172518 64 2 3.0 7.0 0.00 0.00 0.00 37 1020.3
20260503171517 64 28 2.0 9.0 0.00 0.00 0.00 38 1020.6
20260503170518 63 28 2.0 6.0 0.00 0.00 0.00 37 1020.7
20260503150516 63 110 1.0 4.0 0.00 0.00 0.00 41 1022.1
20260503130538 43 12 2.0 3.0 0.00 0.00 0.00 78 1022.1
20260503110517 30 20 0.0 2.0 0.00 0.00 0.00 94 1021.1
20260503081519 29 32 0.0 1.0 0.00 0.00 0.00 94 1020.4
20260503080519 29 200 0.0 1.0 0.00 0.00 0.00 94 1020.4
20260503072519 29 269 0.0 1.0 0.00 0.00 0.00 93 1020.3
20260503071516 30 24 0.0 1.0 0.00 0.00 0.00 93 1020.3
20260503070517 30 0.0 0.0 0.00 0.00 0.00 93 1020.3
20260503054517 31 30 0.0 1.0 0.00 0.00 0.00 93 1020.6
20260503053518 31 18 0.0 1.0 0.00 0.00 0.00 92 1020.6
20260503052518 31 89 0.0 0.0 0.00 0.00 0.00 92 1020.6
20260503051518 32 1 0.0 1.0 0.00 0.00 0.00 92 1020.7
20260503050559 32 9 0.0 1.0 0.00 0.00 0.00 92 1020.7
20260503045515 32 356 0.0 1.0 0.00 0.00 0.00 92 1020.7
20260503044518 32 0.0 0.0 0.00 0.00 0.00 92 1020.6
20260503043519 32 3 0.0 1.0 0.00 0.00 0.00 92 1020.6
20260503042518 32 208 0.0 0.0 0.00 0.00 0.00 92 1020.7
20260503041519 31 8 0.0 1.0 0.00 0.00 0.00 90 1020.6
20260503040519 31 33 0.0 1.0 0.00 0.00 0.00 89 1020.8
20260503035519 32 19 0.0 1.0 0.00 0.00 0.00 88 1020.8
20260503034519 32 327 0.0 1.0 0.00 0.00 0.00 89 1020.9
20260503033519 33 75 0.0 0.0 0.00 0.00 0.00 88 1020.8
20260503032519 33 21 0.0 1.0 0.00 0.00 0.00 85 1020.8
20260503031519 34 19 0.0 1.0 0.00 0.00 0.00 84 1020.8
20260503030519 35 87 0.0 0.0 0.00 0.00 0.00 84 1020.8
20260503025540 37 0.0 0.0 0.00 0.00 0.00 81 1020.8
20260503024540 38 15 0.0 2.0 0.00 0.00 0.00 78 1020.7
20260503023520 38 11 1.0 2.0 0.00 0.00 0.00 76 1020.7
20260503022517 38 8 0.0 2.0 0.00 0.00 0.00 75 1020.6
20260503021517 38 6 1.0 1.0 0.00 0.00 0.00 73 1020.5
20260503020520 39 1 1.0 1.0 0.00 0.00 0.00 71 1020.4
20260503015518 39 7 1.0 2.0 0.00 0.00 0.00 70 1020.2
20260503014518 39 14 0.0 1.0 0.00 0.00 0.00 70 1020.1
20260503013518 40 23 0.0 2.0 0.00 0.00 0.00 68 1020.0
20260503012518 42 6 0.0 1.0 0.00 0.00 0.00 66 1019.9
20260503011538 42 360 0.0 2.0 0.00 0.00 0.00 65 1019.8
20260503010518 43 9 1.0 2.0 0.00 0.00 0.00 62 1019.6
20260503005518 44 15 0.0 2.0 0.00 0.00 0.00 62 1019.6
20260503004518 44 4 1.0 2.0 0.00 0.00 0.00 62 1019.6
20260503003538 45 22 0.0 2.0 0.00 0.00 0.00 61 1019.5
20260503002519 46 47 0.0 2.0 0.00 0.00 0.00 58 1019.4
20260503001538 47 140 0.0 1.0 0.00 0.00 0.00 56 1019.2
20260503000519 48 5 0.0 2.0 0.00 0.00 0.00 54 1019.1
20260502235559 49 30 0.0 1.0 0.00 0.00 0.00 54 1019.0
20260502234519 50 359 1.0 3.0 0.00 0.00 0.00 51 1019.0
20260502233519 51 29 1.0 3.0 0.00 0.00 0.00 47 1018.9
20260502232519 52 60 1.0 3.0 0.00 0.00 0.00 47 1018.9
20260502231517 52 6 1.0 3.0 0.00 0.00 0.00 46 1018.9
20260502230520 52 0 1.0 4.0 0.00 0.00 0.00 45 1019.0
20260502225519 53 14 1.0 3.0 0.00 0.00 0.00 45 1018.9
20260502224520 54 16 0.0 2.0 0.00 0.00 0.00 44 1018.8
20260502223517 54 354 2.0 4.0 0.00 0.00 0.00 43 1018.7
20260502222517 54 156 1.0 4.0 0.00 0.00 0.00 43 1018.9
20260502221520 55 5 1.0 3.0 0.00 0.00 0.00 43 1018.7
20260502220521 56 9 2.0 4.0 0.00 0.00 0.00 42 1018.8
20260502215518 56 3 2.0 3.0 0.00 0.00 0.00 42 1018.8
20260502214518 56 13 2.0 6.0 0.00 0.00 0.00 41 1018.7
20260502213518 57 5 2.0 4.0 0.00 0.00 0.00 41 1018.8
20260502212518 57 7 1.0 3.0 0.00 0.00 0.00 44 1018.7
20260502211518 57 135 1.0 3.0 0.00 0.00 0.00 44 1018.8
20260502210535 58 77 1.0 3.0 0.00 0.00 0.00 41 1018.6
20260502205516 57 155 1.0 5.0 0.00 0.00 0.00 41 1018.8
20260502204519 56 17 1.0 3.0 0.00 0.00 0.00 43 1018.7
20260502203519 58 161 2.0 4.0 0.00 0.00 0.00 41 1018.5
20260502202519 58 181 2.0 4.0 0.00 0.00 0.00 40 1018.7
20260502201519 58 152 2.0 4.0 0.00 0.00 0.00 41 1018.9